GW0026 Weather Reports


Display with metric or nautical units.
time (UTC)temp
F
wind
direction
speed
MPH
gust
MPH
rain 1hr
in
rain 24hr
in
rain mn
in
humidity
%
barometer
mb
20260503034848 38 352 0.0 0.0 0.00 0.03 0.03 77 1011.9
20260503034346 38 353 0.0 0.0 0.00 0.03 0.03 76 1012.2
20260503033843 38 344 0.0 0.0 0.00 0.03 0.03 76 1012.1
20260503033341 38 345 0.0 0.0 0.00 0.03 0.03 76 1011.9
20260503032838 39 345 0.0 0.0 0.00 0.03 0.03 76 1011.9
20260503032337 38 341 0.0 0.0 0.00 0.03 0.03 76 1011.9
20260503031834 39 342 0.0 0.0 0.00 0.03 0.03 75 1011.9
20260503031332 39 342 0.0 0.0 0.00 0.03 0.03 74 1012.0
20260503030828 39 342 0.0 0.0 0.00 0.03 0.03 73 1012.2
20260503030325 40 342 0.0 0.0 0.00 0.03 0.03 73 1012.2
20260503025821 40 342 0.0 0.0 0.00 0.03 0.03 72 1012.1
20260503025319 41 342 0.0 0.0 0.00 0.03 0.03 71 1012.3
20260503024815 41 342 0.0 0.0 0.00 0.03 0.03 70 1012.2
20260503024312 41 342 0.0 0.0 0.00 0.03 0.03 70 1012.2
20260503023809 41 344 0.0 0.0 0.00 0.03 0.03 69 1012.1
20260503023306 42 342 0.0 0.0 0.00 0.03 0.03 69 1012.3
20260503022802 42 345 0.0 0.0 0.00 0.03 0.03 68 1012.3
20260503022257 42 344 0.0 0.0 0.00 0.03 0.03 69 1012.2
20260503021754 42 349 0.0 0.0 0.00 0.03 0.03 70 1012.4
20260503021250 42 354 0.0 0.0 0.00 0.03 0.03 69 1012.4
20260503020748 41 6 0.0 0.0 0.00 0.03 0.03 69 1012.6
20260503020245 41 349 0.0 0.0 0.00 0.03 0.03 71 1012.4
20260503015741 40 349 0.0 0.0 0.00 0.03 0.03 71 1012.4
20260503015238 40 349 0.0 0.0 0.00 0.03 0.03 72 1012.4
20260503014734 40 349 0.0 0.0 0.00 0.03 0.03 71 1012.6
20260503014232 40 349 0.0 0.0 0.00 0.03 0.03 70 1012.4
20260503013729 40 351 0.0 0.0 0.00 0.03 0.03 70 1012.5
20260503013227 41 353 0.0 0.0 0.00 0.03 0.03 70 1012.5
20260503012724 41 353 0.0 0.0 0.00 0.03 0.03 68 1012.6
20260503012221 41 351 0.0 0.0 0.00 0.03 0.03 68 1012.6
20260503011717 41 341 0.0 0.0 0.00 0.03 0.03 69 1012.5
20260503011215 41 341 0.0 0.0 0.00 0.03 0.03 67 1012.5
20260503010710 42 352 0.0 0.0 0.00 0.03 0.03 66 1012.4
20260503010208 42 338 0.0 0.0 0.00 0.03 0.03 66 1012.2
20260503005705 42 338 0.0 0.0 0.00 0.03 0.03 66 1012.2
20260503005202 42 339 0.0 0.0 0.00 0.03 0.03 66 1012.3
20260503004658 43 339 0.0 0.0 0.00 0.03 0.03 64 1012.1
20260503004157 43 339 0.0 0.0 0.00 0.03 0.03 63 1012.1
20260503003654 44 338 0.0 0.0 0.00 0.03 0.03 61 1012.1
20260503003151 44 340 0.0 0.0 0.00 0.03 0.03 60 1012.0
20260503002647 45 336 0.0 1.0 0.00 0.03 0.03 58 1012.1
20260503002144 45 347 0.0 0.0 0.00 0.03 0.03 58 1012.1
20260503001640 45 331 0.0 1.0 0.00 0.03 0.03 59 1011.8
20260503001137 45 337 0.0 0.0 0.00 0.03 0.03 58 1011.9
20260503000635 46 354 0.0 0.0 0.00 0.03 0.03 57 1011.8
20260503000132 46 308 1.0 1.0 0.00 0.03 0.03 57 1011.8
20260502235628 46 343 1.0 1.0 0.00 0.03 0.03 57 1011.9
20260502235127 46 339 0.0 0.0 0.00 0.03 0.03 56 1012.0
20260502234622 47 343 0.0 0.0 0.00 0.03 0.03 55 1011.8
20260502234120 47 330 0.0 1.0 0.00 0.03 0.03 55 1012.0
20260502233615 48 194 1.0 1.0 0.00 0.03 0.03 53 1011.7
20260502233113 48 18 0.0 0.0 0.00 0.03 0.03 52 1011.6
20260502232608 48 303 0.0 1.0 0.00 0.03 0.03 51 1011.6
20260502232106 48 337 0.0 0.0 0.00 0.03 0.03 50 1011.8
20260502231603 49 326 1.0 2.0 0.00 0.03 0.03 50 1011.7
20260502231101 49 6 0.0 0.0 0.00 0.03 0.03 51 1011.6
20260502230559 50 7 0.0 1.0 0.00 0.03 0.03 50 1011.6
20260502230057 50 11 0.0 0.0 0.00 0.03 0.03 48 1011.5
20260502225552 50 344 0.0 0.0 0.00 0.03 0.03 49 1011.6
20260502225050 50 355 1.0 2.0 0.00 0.03 0.03 49 1011.5
20260502224545 50 352 0.0 1.0 0.00 0.03 0.03 47 1011.5
20260502224043 52 336 0.0 1.0 0.00 0.03 0.03 46 1011.3
20260502223540 53 292 1.0 3.0 0.00 0.03 0.03 45 1011.4
20260502223039 53 36 1.0 2.0 0.00 0.03 0.03 44 1011.2
20260502222535 53 329 0.0 1.0 0.00 0.03 0.03 45 1011.2
20260502222032 52 279 1.0 2.0 0.00 0.03 0.03 44 1011.0
20260502221527 53 275 2.0 5.0 0.00 0.03 0.03 43 1011.2
20260502221025 54 48 2.0 5.0 0.00 0.03 0.03 42 1011.1
20260502220520 54 318 2.0 2.0 0.00 0.03 0.03 42 1011.3
20260502220018 55 138 2.0 3.0 0.00 0.03 0.03 43 1011.1
20260502215515 55 342 1.0 2.0 0.00 0.03 0.03 41 1011.2
20260502215012 55 328 1.0 1.0 0.00 0.03 0.03 40 1011.1
20260502214509 55 300 3.0 3.0 0.00 0.03 0.03 39 1010.8
20260502214006 55 246 2.0 3.0 0.00 0.03 0.03 39 1011.2
20260502213503 55 246 1.0 2.0 0.00 0.03 0.03 42 1011.2
20260502213001 54 351 0.0 1.0 0.00 0.03 0.03 42 1011.0
20260502212459 55 179 2.0 2.0 0.00 0.03 0.03 42 1011.3
20260502211956 55 139 2.0 2.0 0.00 0.03 0.03 43 1011.0
20260502211452 55 276 0.0 0.0 0.00 0.03 0.03 45 1010.9
20260502210950 54 204 1.0 2.0 0.00 0.03 0.03 44 1010.9
20260502210446 53 359 1.0 1.0 0.00 0.03 0.03 44 1010.7
20260502205943 54 171 1.0 2.0 0.00 0.03 0.03 44 1011.0
20260502205439 53 294 1.0 1.0 0.00 0.03 0.03 45 1010.9
20260502204937 53 170 4.0 6.0 0.00 0.03 0.03 45 1010.9
20260502204433 54 318 1.0 1.0 0.00 0.03 0.03 45 1010.8
20260502203932 55 315 1.0 2.0 0.00 0.03 0.03 44 1010.9
20260502203429 55 291 1.0 3.0 0.00 0.03 0.03 44 1010.8
20260502202924 55 280 3.0 3.0 0.00 0.03 0.03 42 1010.9
20260502202421 55 274 3.0 5.0 0.00 0.03 0.03 44 1010.9
20260502201920 56 335 3.0 3.0 0.00 0.03 0.03 43 1010.9
20260502201415 55 260 2.0 2.0 0.00 0.03 0.03 44 1010.6
20260502200912 54 259 1.0 1.0 0.00 0.03 0.03 46 1011.0
20260502200408 55 346 1.0 1.0 0.00 0.03 0.03 45 1011.0
20260502195906 57 169 1.0 1.0 0.00 0.03 0.03 43 1011.0
20260502195403 58 249 2.0 3.0 0.00 0.03 0.03 42 1010.9
20260502194859 57 305 2.0 2.0 0.00 0.03 0.03 43 1010.8
20260502194356 57 303 2.0 2.0 0.00 0.03 0.03 44 1010.9
20260502193852 58 283 3.0 5.0 0.00 0.03 0.03 42 1010.8
20260502193349 58 214 1.0 1.0 0.00 0.03 0.03 43 1011.0
20260502192844 58 307 1.0 2.0 0.00 0.03 0.03 44 1010.8
20260502192342 56 298 1.0 2.0 0.00 0.03 0.03 46 1011.0
20260502191839 55 270 2.0 3.0 0.00 0.03 0.03 46 1011.0
20260502191337 54 323 1.0 2.0 0.00 0.03 0.03 49 1011.1
20260502190834 55 310 2.0 2.0 0.00 0.03 0.03 49 1011.0
20260502190331 55 352 0.0 0.0 0.00 0.03 0.03 48 1011.0
20260502185827 57 325 1.0 1.0 0.00 0.03 0.03 45 1010.9
20260502185322 55 247 1.0 1.0 0.00 0.03 0.03 48 1010.9
20260502184820 56 154 1.0 1.0 0.00 0.03 0.03 48 1011.0
20260502184315 59 332 3.0 3.0 0.00 0.03 0.03 46 1011.0
20260502183812 58 357 4.0 6.0 0.00 0.03 0.03 46 1010.8
20260502183308 60 281 3.0 3.0 0.00 0.03 0.03 43 1010.8
20260502182803 59 297 2.0 2.0 0.00 0.03 0.03 45 1010.9
20260502182259 57 63 2.0 3.0 0.00 0.03 0.03 47 1010.8
20260502181755 58 13 1.0 2.0 0.00 0.03 0.03 49 1011.1
20260502181249 58 330 2.0 2.0 0.00 0.03 0.03 46 1011.0
20260502180747 58 344 1.0 1.0 0.00 0.03 0.03 48 1011.1
20260502180244 59 292 1.0 1.0 0.00 0.03 0.03 50 1011.0
20260502170208 56 280 1.0 1.0 0.00 0.03 0.03 54 1011.3
20260502164155 53 22 2.0 3.0 0.00 0.03 0.03 60 1011.6
20260502163650 53 327 0.0 1.0 0.00 0.03 0.03 63 1011.7
20260502163147 53 3 0.0 1.0 0.00 0.03 0.03 60 1011.6
20260502162644 55 293 2.0 3.0 0.00 0.03 0.03 57 1011.5
20260502162141 55 287 2.0 2.0 0.00 0.03 0.03 57 1011.5
20260502161638 56 324 1.0 2.0 0.00 0.03 0.03 57 1011.5
20260502161135 57 276 3.0 3.0 0.00 0.03 0.03 56 1011.6
20260502160633 54 328 1.0 2.0 0.00 0.03 0.03 61 1011.4
20260502160131 53 309 1.0 1.0 0.00 0.03 0.03 60 1011.6
20260502152045 52 315 2.0 2.0 0.00 0.03 0.03 63 1011.9
20260502151543 53 312 1.0 1.0 0.00 0.03 0.03 64 1011.7
20260502151040 53 15 0.0 0.0 0.00 0.03 0.03 62 1012.0
20260502150538 51 163 2.0 2.0 0.00 0.03 0.03 63 1011.6
20260502130422 48 345 1.0 2.0 0.00 0.03 0.03 82 1012.1
20260502123405 46 22 1.0 2.0 0.00 0.03 0.03 87 1012.1
20260502122902 46 291 0.0 1.0 0.00 0.03 0.03 87 1011.8
20260502122358 46 303 0.0 0.0 0.00 0.03 0.03 88 1012.0
20260502121856 46 294 2.0 2.0 0.00 0.03 0.03 88 1011.8
20260502121353 46 334 0.0 1.0 0.00 0.03 0.03 89 1011.8
20260502120851 46 357 0.0 1.0 0.00 0.03 0.03 90 1011.9
20260502120347 45 339 0.0 0.0 0.00 0.03 0.03 91 1011.9
20260502115844 45 59 0.0 1.0 0.00 0.03 0.03 91 1012.1
20260502115342 45 306 2.0 2.0 0.00 0.03 0.03 91 1011.8
20260502114838 45 310 0.0 0.0 0.00 0.03 0.03 92 1012.0
20260502114335 45 358 1.0 1.0 0.00 0.03 0.03 92 1012.0
20260502113832 45 355 1.0 1.0 0.00 0.03 0.03 92 1011.8
20260502113329 45 345 0.0 1.0 0.00 0.03 0.03 93 1011.9
20260502112827 44 350 0.0 0.0 0.00 0.03 0.03 94 1011.8
20260502112324 44 357 0.0 0.0 0.00 0.03 0.03 94 1011.7
20260502111822 44 338 1.0 1.0 0.00 0.03 0.03 94 1011.5
20260502111319 44 337 1.0 1.0 0.00 0.03 0.03 94 1011.5
20260502110817 44 337 1.0 1.0 0.00 0.03 0.03 95 1011.6
20260502110314 44 359 0.0 0.0 0.00 0.03 0.03 96 1011.6
20260502105812 44 356 1.0 1.0 0.00 0.03 0.03 96 1011.5
20260502105308 44 321 0.0 0.0 0.00 0.03 0.03 97 1011.4
20260502104806 44 352 0.0 1.0 0.00 0.03 0.03 97 1011.4
20260502104303 44 349 0.0 0.0 0.00 0.03 0.03 97 1011.3
20260502103800 44 295 0.0 0.0 0.00 0.03 0.03 97 1011.3
20260502103258 44 2 0.0 0.0 0.00 0.03 0.03 97 1011.3
20260502102755 44 351 0.0 1.0 0.00 0.03 0.03 98 1011.2
20260502102251 44 344 0.0 0.0 0.00 0.03 0.03 99 1010.9
20260502101749 44 323 1.0 1.0 0.00 0.03 0.03 99 1011.2
20260502101247 44 331 0.0 0.0 0.00 0.03 0.03 99 1011.1
20260502100745 44 331 0.0 0.0 0.00 0.03 0.03 99 1011.0
20260502100244 44 324 0.0 0.0 0.00 0.03 0.03 99 1010.9
20260502091218 45 355 0.0 0.0 0.00 0.03 0.03 99 1010.7
20260502090715 45 1 0.0 0.0 0.00 0.03 0.03 99 1010.6
20260502090212 45 355 0.0 0.0 0.00 0.03 0.03 99 1010.8
20260502071107 46 353 0.0 0.0 0.00 0.03 0.03 99 1010.8
20260502070605 46 349 0.0 0.0 0.00 0.03 0.03 99 1011.2
20260502065601 46 357 0.0 0.0 0.00 0.03 0.03 99 1010.9
20260502065058 46 344 0.0 0.0 0.00 0.03 0.03 99 1011.1
20260502064557 46 340 0.0 0.0 0.00 0.03 0.03 99 1011.0
20260502064054 46 346 0.0 1.0 0.00 0.03 0.03 99 1011.0
20260502063551 46 7 0.0 0.0 0.00 0.03 0.03 99 1010.8
20260502063049 46 0 0.0 0.0 0.00 0.03 0.03 99 1010.9
20260502062546 46 2 0.0 0.0 0.00 0.03 0.03 99 1010.9
20260502062044 46 1 0.0 0.0 0.00 0.03 0.03 99 1010.7
20260502061542 46 51 0.0 0.0 0.00 0.03 0.03 99 1011.0
20260502061039 46 351 0.0 0.0 0.00 0.03 0.03 99 1011.0
20260502060534 46 352 0.0 0.0 0.00 0.03 0.03 99 1011.1
20260502060031 46 345 0.0 0.0 0.00 0.03 0.03 99 1011.3
20260502055528 46 353 0.0 0.0 0.00 0.03 0.03 99 1011.4
20260502055027 46 352 0.0 0.0 0.00 0.03 0.03 99 1011.2
20260502054525 46 3 0.0 0.0 0.00 0.03 0.03 99 1011.1
20260502054022 46 7 0.0 0.0 0.00 0.03 0.03 99 1011.1
20260502053519 46 358 0.0 0.0 0.00 0.03 0.03 98 1011.2
20260502053017 46 1 0.0 0.0 0.00 0.03 0.03 98 1011.3
20260502052515 46 2 0.0 0.0 0.00 0.03 0.03 98 1011.4
20260502052013 46 353 0.0 0.0 0.00 0.03 0.03 97 1011.4
20260502051510 47 354 0.0 0.0 0.00 0.03 0.03 96 1011.4
20260502051008 47 356 0.0 0.0 0.05 0.03 0.03 95 1011.3
20260502050504 47 357 0.0 0.0 0.12 0.03 0.03 93 1011.5
20260502050001 48 355 0.0 0.0 0.12 0.02 0.02 91 1011.6
20260502045457 48 349 0.0 0.0 0.05 0.01 0.01 90 1011.6
20260502044955 48 3 0.0 0.0 0.00 0.00 0.00 87 1011.5
20260502044450 48 353 0.0 0.0 0.00 0.00 0.00 85 1011.9
20260502043947 48 7 0.0 0.0 0.00 0.00 0.00 85 1011.7
20260502043445 48 349 0.0 0.0 0.00 0.00 0.00 85 1011.4
20260502042944 48 349 0.0 0.0 0.00 0.00 0.00 84 1011.4
20260502042442 48 354 0.0 0.0 0.00 0.00 0.00 83 1011.4
20260502041939 48 350 0.0 1.0 0.00 0.00 0.00 83 1011.2
20260502041437 48 350 0.0 0.0 0.00 0.00 0.00 82 1011.4
20260502040933 48 1 0.0 0.0 0.00 0.00 0.00 82 1011.2
20260502040430 49 355 0.0 0.0 0.00 0.00 0.00 81 1011.4
20260502035926 49 351 0.0 0.0 0.00 0.00 0.00 80 1011.3
20260502035423 49 352 0.0 0.0 0.00 0.00 0.00 78 1011.4